FW4113 Weather Reports


Display with metric or nautical units.
time (UTC)temp
F
wind
direction
speed
MPH
gust
MPH
rain 1hr
in
rain 24hr
in
rain mn
in
humidity
%
barometer
mb
20260906223100 83 316 4.0 6.0 0.00 0.00 0.00 11 1007.6
20260906221602 83 317 3.0 8.0 0.00 0.00 0.00 11 1008.0
20260906220056 83 335 2.0 8.0 0.00 0.00 0.00 11 1008.3
20260906214552 82 236 1.0 5.0 0.00 0.00 0.00 12 1008.7
20260906213102 81 319 1.0 4.0 0.00 0.00 0.00 13 1008.8
20260906211552 81 283 0.0 7.0 0.00 0.00 0.00 13 1009.0
20260906210053 81 254 3.0 6.0 0.00 0.00 0.00 13 1008.9
20260906204559 81 284 3.0 7.0 0.00 0.00 0.00 13 1009.2
20260906203043 81 113 2.0 7.0 0.00 0.00 0.00 13 1009.3
20260906201558 80 267 0.0 6.0 0.00 0.00 0.00 14 1009.4
20260906200038 80 127 2.0 7.0 0.00 0.00 0.00 12 1009.8
20260906194536 81 228 1.0 4.0 0.00 0.00 0.00 14 1009.8
20260906193035 82 317 2.0 8.0 0.00 0.00 0.00 11 1010.0
20260906191533 82 285 1.0 5.0 0.00 0.00 0.00 10 1010.2
20260906190030 81 46 0.0 4.0 0.00 0.00 0.00 10 1010.4
20260906184528 79 245 2.0 7.0 0.00 0.00 0.00 13 1010.7
20260906183027 76 344 0.0 3.0 0.00 0.00 0.00 13 1010.8
20260906181524 79 338 0.0 6.0 0.00 0.00 0.00 11 1010.9
20260906180037 79 165 2.0 4.0 0.00 0.00 0.00 10 1011.3
20260906174520 78 74 1.0 6.0 0.00 0.00 0.00 11 1011.6
20260906173015 77 70 0.0 2.0 0.00 0.00 0.00 14 1011.6
20260906171510 75 275 0.0 1.0 0.00 0.00 0.00 16 1011.8
20260906170007 75 117 1.0 7.0 0.00 0.00 0.00 12 1011.9
20260906164503 72 273 0.0 0.0 0.00 0.00 0.00 14 1012.0
20260906163108 68 300 0.0 0.0 0.00 0.00 0.00 23 1012.2
20260906161555 64 300 0.0 0.0 0.00 0.00 0.00 27 1012.3
20260906160051 62 309 0.0 0.0 0.00 0.00 0.00 32 1012.6
20260906154552 58 309 0.0 0.0 0.00 0.00 0.00 39 1012.7
20260906153041 52 288 0.0 0.0 0.00 0.00 0.00 49 1012.8
20260906151540 48 274 0.0 0.0 0.00 0.00 0.00 55 1013.1
20260906150035 46 234 0.0 0.0 0.00 0.00 0.00 60 1013.1
20260906144534 45 238 0.0 0.0 0.00 0.00 0.00 60 1013.3
20260906143036 44 238 0.0 0.0 0.00 0.00 0.00 61 1013.3
20260906141531 41 239 0.0 0.0 0.00 0.00 0.00 65 1013.2
20260906140032 40 245 0.0 0.0 0.00 0.00 0.00 63 1013.3
20260906134523 41 271 0.0 0.0 0.00 0.00 0.00 62 1013.4
20260906133021 41 263 0.0 0.0 0.00 0.00 0.00 62 1013.0
20260906131532 42 246 0.0 0.0 0.00 0.00 0.00 61 1012.9
20260906130016 43 245 0.0 0.0 0.00 0.00 0.00 60 1012.6
20260906124515 43 244 0.0 0.0 0.00 0.00 0.00 60 1012.5
20260906123013 43 244 0.0 0.0 0.00 0.00 0.00 60 1012.5
20260906121512 43 242 0.0 0.0 0.00 0.00 0.00 60 1012.0
20260906120010 42 242 0.0 0.0 0.00 0.00 0.00 61 1011.9
20260906114508 42 244 0.0 0.0 0.00 0.00 0.00 62 1011.8
20260906113007 42 244 0.0 0.0 0.00 0.00 0.00 61 1011.6
20260906111505 42 244 0.0 0.0 0.00 0.00 0.00 61 1011.7
20260906110003 42 243 0.0 0.0 0.00 0.00 0.00 60 1011.6
20260906104503 42 243 0.0 0.0 0.00 0.00 0.00 59 1011.7
20260906103059 43 244 0.0 0.0 0.00 0.00 0.00 59 1011.6
20260906101557 44 240 0.0 0.0 0.00 0.00 0.00 59 1011.5
20260906100054 44 241 0.0 0.0 0.00 0.00 0.00 58 1011.3
20260906094554 44 237 0.0 0.0 0.00 0.00 0.00 58 1011.2
20260906093051 44 238 0.0 0.0 0.00 0.00 0.00 58 1011.2
20260906091549 45 238 0.0 0.0 0.00 0.00 0.00 57 1011.1
20260906090053 46 238 0.0 0.0 0.00 0.00 0.00 55 1011.2
20260906084549 47 238 0.0 0.0 0.00 0.00 0.00 54 1011.1
20260906083041 47 238 0.0 0.0 0.00 0.00 0.00 54 1011.1
20260906081538 48 238 0.0 0.0 0.00 0.00 0.00 53 1011.2
20260906080036 48 239 0.0 0.0 0.00 0.00 0.00 52 1011.2
20260906074534 49 236 0.0 0.0 0.00 0.00 0.00 52 1011.1
20260906073039 50 236 0.0 0.0 0.00 0.00 0.00 51 1011.2
20260906071531 50 236 0.0 0.0 0.00 0.00 0.00 50 1011.0
20260906070029 50 308 0.0 0.0 0.00 0.00 0.00 51 1011.1
20260906064528 50 308 0.0 0.0 0.00 0.00 0.00 51 1011.1
20260906063027 50 98 0.0 0.0 0.00 0.00 0.00 51 1011.2
20260906061524 51 97 0.0 0.0 0.00 0.00 0.00 50 1011.2
20260906060030 51 97 0.0 0.0 0.00 0.00 0.00 50 1011.3
20260906054522 51 99 0.0 0.0 0.00 0.00 0.00 50 1011.3
20260906053022 52 95 0.0 0.0 0.00 0.00 0.00 50 1011.2
20260906051521 52 96 0.0 0.0 0.00 0.00 0.00 49 1011.0
20260906050022 52 96 0.0 0.0 0.00 0.00 0.00 49 1011.0
20260906044520 52 93 0.0 0.0 0.00 0.00 0.00 48 1010.9
20260906043028 53 94 0.0 0.0 0.00 0.00 0.00 48 1010.9
20260906041521 54 97 0.0 0.0 0.00 0.00 0.00 47 1010.9
20260906040028 54 144 0.0 0.0 0.00 0.00 0.00 46 1010.8
20260906034530 56 291 0.0 0.0 0.00 0.00 0.00 43 1010.6
20260906033025 57 290 0.0 0.0 0.00 0.00 0.00 41 1010.4
20260906031519 58 282 0.0 0.0 0.00 0.00 0.00 40 1010.3
20260906030017 59 259 0.0 0.0 0.00 0.00 0.00 38 1010.0
20260906024516 61 235 0.0 0.0 0.00 0.00 0.00 35 1009.8
20260906023016 62 288 0.0 0.0 0.00 0.00 0.00 32 1009.6
20260906021517 64 292 0.0 0.0 0.00 0.00 0.00 31 1009.6
20260906020015 66 327 0.0 0.0 0.00 0.00 0.00 29 1009.3
20260906014526 67 327 0.0 0.0 0.00 0.00 0.00 27 1009.1
20260906013016 68 327 0.0 1.0 0.00 0.00 0.00 22 1009.0
20260906011531 70 328 0.0 2.0 0.00 0.00 0.00 21 1008.8
20260906010013 72 327 0.0 3.0 0.00 0.00 0.00 20 1008.8
20260906004521 73 327 2.0 5.0 0.00 0.00 0.00 19 1008.8
20260906003013 74 320 3.0 5.0 0.00 0.00 0.00 17 1008.6
20260906001512 74 312 1.0 5.0 0.00 0.00 0.00 17 1008.6
20260906000010 74 331 2.0 8.0 0.00 0.00 0.00 18 1008.4
20260905234511 75 302 0.0 6.0 0.00 0.00 0.00 18 1008.4
20260905233010 75 311 1.0 4.0 0.00 0.00 0.00 17 1008.5
20260905231510 76 311 0.0 3.0 0.00 0.00 0.00 18 1008.4
20260905230008 77 265 1.0 4.0 0.00 0.00 0.00 16 1008.4
20260905224513 77 319 1.0 5.0 0.00 0.00 0.00 16 1008.5